Hoquiam, WA
on Friday, November 16, 2012

Friday
Previous Day Next Day
Daily Summary
 ActualAverageRecord
Temperature
Mean Temperature °F 46°F  
Max Temperature 51°F 51°F 62°F (1965)
Min Temperature 39°F 40°F 23°F (1955)
Degree Days
Heating Degree Days 20 19  
Month to date heating degree days 283  
Cooling Degree Days 0 0  
Month to date cooling degree days 0  
Year to date cooling degree days 23  
Moisture
Dew Point 42°F   
Average Humidity 93    
Maximum Humidity 100    
Minimum Humidity 80    
Precipitation
Precipitation 0.17 in 0.40 in 2.79 in (2009)
Month to date precipitation 5.83  
Year to date precipitation 52.25  
Wind
Wind Speed 9 mph   
Max Wind Speed 13 mph   
Max Gust Speed mph   
Visibility 7 miles   
Events Rain   

Key: T is trace of precipitation, MM is missing value
Source: NWS Daily Summary
Time(PST)TemperatureDew PointHumidity Pressure Visibility Wind DirectionWind SpeedGust SpeedPrecipitationEvents Conditions
12:02 AM 42.8°F 41.0°F 93% 29.93 in 6.0 miles ENE 9.2 mph - N/A   Overcast
12:23 AM 42.8°F 41.0°F 93% 29.93 in 6.0 miles ENE 9.2 mph - N/A   Overcast
12:53 AM 43.0°F 41.0°F 93% 29.94 in 6.0 miles ENE 9.2 mph - N/A   Overcast
1:39 AM 42.8°F 41.0°F 93% 29.92 in 7.0 miles ENE 9.2 mph - N/A   Overcast
1:46 AM 42.8°F 41.0°F 93% 29.92 in 7.0 miles NE 8.1 mph - N/A   Overcast
1:53 AM 43.0°F 41.0°F 93% 29.93 in 7.0 miles NE 5.8 mph - N/A   Overcast
2:05 AM 42.8°F 41.0°F 93% 29.92 in 8.0 miles ENE 5.8 mph - N/A   Overcast
2:20 AM 42.8°F 41.0°F 93% 29.91 in 8.0 miles ENE 6.9 mph - N/A   Overcast
2:53 AM 42.1°F 41.0°F 96% 29.92 in 8.0 miles ENE 9.2 mph - N/A   Overcast
3:48 AM 42.8°F 41.0°F 93% 29.90 in 7.0 miles ENE 8.1 mph - N/A   Overcast
3:53 AM 42.1°F 41.0°F 96% 29.91 in 7.0 miles ENE 8.1 mph - N/A   Overcast
4:24 AM 42.8°F 39.2°F 87% 29.89 in 8.0 miles ENE 8.1 mph - N/A   Mostly Cloudy
4:53 AM 41.0°F 39.9°F 96% 29.89 in 7.0 miles NE 8.1 mph - N/A   Scattered Clouds
5:28 AM 41.0°F 39.2°F 93% 29.88 in 4.0 miles ENE 9.2 mph - N/A   Mostly Cloudy
5:53 AM 41.0°F 39.9°F 96% 29.89 in 4.0 miles ENE 9.2 mph - N/A   Mostly Cloudy
6:02 AM 41.0°F 39.2°F 93% 29.88 in 3.0 miles ENE 9.2 mph - N/A   Mostly Cloudy
6:30 AM 39.2°F 39.2°F 100% 29.87 in 4.0 miles ENE 9.2 mph - N/A   Scattered Clouds
6:53 AM 39.9°F 39.0°F 97% 29.88 in 4.0 miles ENE 9.2 mph - N/A   Partly Cloudy
7:53 AM 39.9°F 39.0°F 97% 29.89 in 4.0 miles ENE 8.1 mph - N/A   Clear
8:00 AM 39.2°F 39.2°F 100% 29.88 in 4.0 miles NE 9.2 mph - N/A   Scattered Clouds
8:53 AM 41.0°F 39.0°F 93% 29.90 in 5.0 miles NE 9.2 mph - N/A   Clear
9:53 AM 43.0°F 41.0°F 93% 29.89 in 9.0 miles NE 8.1 mph - N/A   Mostly Cloudy
10:38 AM 42.8°F 41.0°F 93% 29.89 in 9.0 miles ENE 9.2 mph - N/A   Overcast
10:53 AM 44.1°F 41.0°F 89% 29.89 in 9.0 miles ENE 9.2 mph - N/A   Overcast
11:20 AM 44.6°F 41.0°F 87% 29.87 in 9.0 miles NE 8.1 mph - N/A   Overcast
11:53 AM 46.0°F 43.0°F 89% 29.86 in 10.0 miles ENE 6.9 mph - N/A   Overcast
12:53 PM 48.0°F 43.0°F 83% 29.83 in 10.0 miles ENE 6.9 mph - N/A   Overcast
1:53 PM 48.0°F 42.1°F 80% 29.81 in 10.0 miles ENE 10.4 mph - N/A   Overcast
2:53 PM 46.0°F 44.1°F 93% 29.79 in 5.0 miles ENE 10.4 mph - 0.03 in Rain Light Rain
3:53 PM 46.9°F 45.0°F 93% 29.77 in 8.0 miles ENE 11.5 mph - 0.02 in   Overcast
4:53 PM 46.9°F 46.0°F 97% 29.75 in 7.0 miles ENE 9.2 mph - 0.00 in   Overcast
5:53 PM 48.0°F 46.0°F 93% 29.74 in 7.0 miles NE 12.7 mph - 0.03 in Rain Light Rain
6:53 PM 48.0°F 46.9°F 96% 29.72 in 7.0 miles ENE 10.4 mph - 0.02 in Rain Light Rain
7:53 PM 48.9°F 46.9°F 93% 29.71 in 5.0 miles ENE 9.2 mph - 0.03 in Rain Light Rain
8:53 PM 50.0°F 48.0°F 93% 29.70 in 7.0 miles ENE 9.2 mph - 0.00 in   Overcast
9:53 PM 51.1°F 48.9°F 92% 29.69 in 7.0 miles ENE 10.4 mph - 0.02 in Rain Light Rain
10:53 PM 51.1°F 48.9°F 92% 29.68 in 9.0 miles ENE 10.4 mph - 0.00 in   Overcast
11:53 PM 51.1°F 48.9°F 92% 29.65 in 10.0 miles East 12.7 mph - 0.02 in Rain Light Rain
Moon Phase
Nov. 16 Nov. 20 Nov. 28 Dec. 06 Dec. 13
Sunrise:07:21 AM (PST) Moon Rise:10:24 AM (PST)11/16
Sunset:04:39 PM (PST) Moon Set:07:43 PM (PST)11/16

Copyright © 2014 The Weather Underground, Inc.